Probability
10 3 6 10 10 6 10 3 3 6 6 6 6 6 3 0 3 3 6 23 42 35 39 35 35 39 42 45 45 52 45 48 52 48 48 52 48 52 55 58 65 65 68
6 3 6 6 6 3 3 3 3 3 3 3 0 0 0 0 0 0 6 10 39 42 42 35 35 35 35 39 42 39 48 55 48 48 52 45 48 45 48 48 48 52 58
6 3 6 6 6 3 3 3 3 3 3 0 0 0 0 0 0 0 0 3 10 26 35 39 39 35 26 29 29 26 29 35 45 45 45 48 45 42 45 48 48 39 35
3 6 6 3 3 3 3 3 3 3 3 0 0 0 0 0 0 0 0 0 0 6 16 26 29 29 23 19 16 16 23 26 35 35 42 39 39 42 39 39 42 39 26
0 3 6 3 3 3 3 3 3 3 3 3 0 0 0 0 0 0 0 0 0 3 3 10 19 19 16 13 16 19 23 26 29 26 39 39 29 29 32 32 32 29 26
3 3 0 3 3 3 3 3 0 0 0 0 0 0 0 0 0 0 0 0 0 0 0 0 3 6 16 19 16 19 13 16 23 32 32 32 32 29 26 26 29 23 26
3 3 0 0 3 3 3 0 0 0 0 0 0 0 0 0 0 0 0 0 0 0 0 0 0 0 3 13 16 16 19 13 23 35 32 23 26 26 19 26 23 19 19
3 3 0 0 0 0 0 0 0 0 0 0 0 0 0 0 0 0 0 0 0 0 0 0 0 0 0 0 3 13 23 19 26 29 32 26 23 23 19 16 19 19 13
3 3 0 0 0 0 0 0 0 0 0 0 0 0 0 0 0 0 0 0 0 0 0 0 0 0 0 0 0 3 13 13 23 29 32 26 23 16 16 16 16 16 19
3 3 0 0 0 0 0 0 0 0 0 0 0 0 0 0 0 0 0 0 0 0 0 0 0 0 0 0 0 3 6 3 6 23 26 23 23 19 19 16 16 23 23
3 3 0 0 0 0 0 0 0 0 0 0 0 0 0 0 0 0 0 0 0 0 0 0 0 0 0 0 0 0 0 3 3 3 13 16 16 19 19 19 16 19 19
0 0 0 0 0 0 0 0 0 0 0 0 0 0 0 0 0 0 0 0 0 0 0 0 0 0 0 0 0 0 0 0 0 0 3 6 13 16 13 13 19 16 16
0 0 0 0 0 0 0 0 0 0 0 0 0 0 0 0 0 0 0 0 0 0 0 0 0 0 0 0 0 0 0 0 0 0 0 0 6 10 10 10 10 13 10
0 0 0 0 0 0 0 0 0 0 0 0 0 0 0 0 0 0 0 0 0 0 0 0 0 0 0 0 0 0 0 0 0 0 0 0 0 0 6 6 10 10 10
0 0 0 0 0 0 0 0 0 0 0 0 0 0 0 0 0 0 0 0 0 0 0 0 0 0 0 0 0 0 0 0 0 0 0 0 0 0 0 0 3 3 3
0 0 0 0 0 0 0 0 0 0 0 0 0 0 0 0 0 0 0 0 0 0 0 0 0 0 0 0 0 0 0 0 0 0 0 0 0 0 0 0 0 0 0
0 0 0 0 0 0 0 0 0 0 0 0 0 0 0 0 0 0 0 0 0 0 0 0 0 0 0 0 0 0 0 0 0 0 0 0 0 0 0 0 0 0 0
0 0 0 0 0 0 0 0 0 0 0 0 0 0 0 0 0 0 0 0 0 0 0 0 0 0 0 0 0 0 0 0 0 0 0 0 0 0 0 0 0 0 0
0 0 0 0 0 0 0 0 0 0 0 0 0 0 0 0 0 0 0 0 0 0 0 0 0 0 0 0 0 0 0 0 0 0 0 0 0 0 0 0 0 0 0
0 0 0 0 0 0 0 0 0 0 0 0 0 0 0 0 0 0 0 0 0 0 0 0 0 0 0 0 0 0 0 0 0 0 0 0 0 0 0 0 0 0 0
0 0 0 0 0 0 0 0 0 0 0 0 0 0 0 0 0 0 0 0 0 0 0 0 0 0 0 0 0 0 0 0 0 0 0 0 0 0 0 0 0 0 0
0 0 0 0 0 0 0 0 0 0 0 0 0 0 0 0 0 0 0 0 0 0 0 0 0 0 0 0 0 0 0 0 0 0 0 0 0 0 0 0 0 0 0
0 0 0 0 0 0 0 0 0 0 0 0 0 0 0 0 0 0 0 0 0 0 0 0 0 0 0 0 0 0 0 0 0 0 0 0 0 0 0 0 0 0 0
0 0 0 0 0 0 0 0 0 0 0 0 0 0 0 0 0 0 0 0 0 0 0 0 0 0 0 0 0 0 0 0 0 0 0 0 0 0 0 0 0 0 0
0 0 0 0 0 0 0 0 0 0 0 0 0 0 0 0 0 0 0 0 0 0 0 0 0 0 0 0 0 0 0 0 0 0 0 0 0 0 0 0 0 0 0
0 0 0 0 0 0 0 0 0 0 0 0 0 0 0 0 0 0 0 0 0 0 0 0 0 0 0 0 0 0 0 0 0 0 0 0 0 0 0 0 0 0 0
Height
5838 5836 5834 5833 5832 5831 5830 5829 5829 5828 5827 5827 5827 5826 5826 5826 5826 5825 5825 5825 5826 5826 5827 5828 5829 5829 5830 5831 5833 5834 5835 5837 5839 5841 5842 5844 5847 5849 5851 5854 5856 5858 5861
5832 5831 5829 5828 5826 5825 5824 5823 5822 5822 5821 5820 5820 5819 5819 5819 5818 5818 5818 5818 5818 5819 5820 5820 5821 5822 5823 5824 5825 5827 5829 5831 5832 5834 5836 5839 5841 5843 5846 5848 5851 5853 5856
5827 5825 5824 5822 5821 5819 5818 5816 5815 5815 5814 5813 5813 5812 5812 5811 5811 5810 5811 5811 5811 5811 5812 5813 5814 5815 5815 5816 5817 5819 5821 5824 5826 5828 5830 5833 5835 5837 5840 5843 5845 5848 5850
5822 5820 5818 5816 5814 5813 5811 5810 5809 5807 5807 5806 5805 5805 5804 5804 5803 5803 5803 5803 5803 5803 5804 5805 5806 5807 5808 5809 5811 5813 5814 5817 5819 5821 5824 5827 5829 5831 5834 5837 5839 5842 5845
5816 5814 5812 5810 5808 5807 5805 5804 5802 5801 5800 5799 5798 5797 5796 5796 5795 5795 5795 5795 5795 5795 5796 5797 5798 5799 5800 5802 5803 5805 5807 5810 5812 5815 5817 5820 5823 5825 5828 5831 5833 5836 5839
5811 5808 5806 5804 5802 5801 5799 5797 5796 5794 5793 5792 5791 5789 5788 5788 5787 5787 5787 5787 5787 5787 5788 5789 5789 5791 5792 5794 5796 5798 5800 5802 5805 5808 5810 5814 5816 5819 5821 5824 5827 5830 5832
5806 5803 5801 5798 5796 5794 5793 5791 5789 5787 5786 5785 5784 5782 5781 5780 5779 5779 5779 5779 5779 5779 5780 5781 5782 5783 5785 5786 5789 5791 5793 5795 5798 5801 5804 5807 5809 5812 5815 5817 5820 5823 5825
5800 5798 5795 5793 5790 5788 5786 5784 5783 5781 5779 5778 5777 5775 5774 5774 5772 5771 5770 5770 5771 5771 5772 5773 5774 5775 5777 5779 5781 5783 5786 5788 5791 5794 5796 5799 5802 5805 5807 5810 5813 5815 5818
5795 5792 5789 5787 5785 5782 5780 5778 5776 5775 5773 5772 5770 5769 5768 5767 5766 5764 5763 5763 5763 5763 5764 5765 5766 5768 5769 5771 5774 5776 5779 5781 5783 5786 5789 5792 5794 5797 5800 5803 5805 5808 5811
5790 5787 5784 5782 5779 5777 5774 5772 5770 5769 5767 5766 5764 5762 5761 5760 5759 5758 5757 5755 5755 5756 5756 5757 5758 5760 5762 5764 5766 5768 5771 5774 5776 5779 5781 5784 5787 5790 5792 5795 5798 5801 5803
5785 5782 5779 5776 5774 5771 5769 5767 5765 5763 5761 5759 5757 5756 5754 5753 5752 5751 5750 5750 5749 5749 5749 5750 5751 5753 5754 5756 5758 5761 5763 5766 5769 5771 5774 5776 5779 5781 5784 5787 5790 5793 5795
5780 5777 5774 5771 5769 5766 5764 5762 5759 5757 5755 5753 5752 5750 5748 5747 5745 5744 5744 5743 5742 5742 5742 5743 5744 5746 5747 5749 5751 5753 5755 5758 5761 5763 5766 5768 5771 5773 5776 5779 5781 5784 5787
5776 5772 5769 5767 5764 5761 5759 5756 5754 5752 5750 5748 5746 5744 5742 5740 5739 5738 5737 5736 5736 5735 5735 5736 5737 5738 5740 5742 5744 5746 5748 5750 5753 5755 5758 5760 5763 5765 5768 5770 5773 5775 5778
5772 5768 5765 5762 5760 5757 5754 5752 5749 5747 5745 5743 5741 5739 5736 5735 5733 5732 5731 5730 5729 5729 5729 5729 5730 5731 5733 5735 5737 5739 5741 5743 5745 5747 5750 5752 5755 5757 5760 5762 5765 5767 5769
5768 5765 5761 5758 5755 5753 5750 5748 5745 5743 5741 5739 5736 5734 5731 5729 5727 5725 5724 5724 5723 5723 5723 5723 5723 5724 5725 5727 5729 5732 5734 5736 5738 5740 5742 5744 5747 5749 5751 5754 5757 5759 5761
5764 5761 5757 5754 5751 5749 5746 5744 5741 5739 5737 5735 5732 5729 5727 5724 5722 5720 5719 5717 5717 5717 5717 5717 5716 5717 5718 5720 5722 5724 5727 5728 5730 5732 5735 5736 5739 5741 5744 5746 5748 5750 5752
5761 5757 5754 5751 5748 5745 5743 5740 5738 5735 5733 5731 5728 5725 5722 5720 5718 5716 5714 5712 5711 5711 5710 5711 5710 5711 5712 5713 5715 5717 5719 5721 5723 5725 5727 5729 5732 5734 5736 5738 5740 5742 5745
5758 5754 5751 5748 5745 5742 5739 5737 5734 5732 5729 5727 5724 5721 5718 5716 5714 5711 5709 5707 5706 5705 5705 5705 5705 5705 5706 5707 5709 5711 5713 5715 5717 5719 5721 5723 5725 5726 5728 5730 5731 5734 5737
5756 5752 5749 5746 5743 5739 5737 5734 5731 5729 5726 5724 5721 5718 5715 5713 5710 5708 5706 5703 5701 5700 5700 5700 5700 5700 5701 5702 5703 5705 5707 5709 5711 5713 5715 5716 5718 5719 5720 5722 5724 5727 5729
5754 5751 5747 5744 5741 5738 5735 5732 5729 5726 5723 5720 5718 5715 5712 5710 5707 5704 5702 5700 5698 5696 5696 5696 5696 5696 5696 5697 5698 5700 5702 5704 5706 5707 5709 5710 5711 5712 5714 5716 5718 5720 5722
5753 5749 5746 5743 5739 5736 5733 5730 5727 5724 5721 5718 5715 5712 5709 5706 5704 5701 5699 5697 5695 5693 5693 5692 5692 5693 5693 5693 5694 5696 5697 5699 5701 5702 5703 5704 5706 5707 5708 5710 5711 5713 5715
5751 5748 5744 5741 5738 5734 5731 5728 5724 5721 5718 5715 5712 5709 5706 5704 5701 5699 5696 5694 5693 5691 5690 5690 5690 5690 5690 5690 5691 5692 5693 5695 5696 5698 5699 5700 5700 5702 5703 5704 5706 5707 5708
5749 5746 5743 5739 5736 5732 5729 5725 5722 5719 5716 5712 5709 5706 5703 5701 5698 5696 5694 5692 5690 5689 5688 5688 5687 5687 5687 5687 5688 5689 5690 5691 5692 5693 5694 5695 5696 5697 5698 5699 5700 5701 5702
5747 5744 5740 5737 5734 5730 5727 5723 5720 5716 5713 5710 5707 5704 5701 5698 5696 5694 5691 5689 5688 5686 5686 5685 5684 5684 5684 5684 5685 5686 5686 5687 5688 5689 5690 5691 5692 5692 5693 5693 5694 5695 5695
5745 5742 5738 5735 5732 5728 5724 5721 5717 5714 5711 5707 5704 5701 5698 5696 5693 5691 5689 5687 5685 5684 5683 5682 5682 5681 5681 5681 5682 5683 5683 5684 5685 5686 5686 5687 5688 5688 5688 5689 5689 5689 5689
5743 5739 5736 5733 5729 5726 5722 5718 5715 5711 5708 5705 5702 5699 5696 5693 5691 5688 5686 5684 5683 5681 5680 5680 5679 5679 5679 5679 5679 5680 5680 5681 5681 5682 5683 5683 5683 5683 5684 5684 5684 5683 5683
Wind_Speed
20 21 21 21 21 21 23 23 23 24 24 24 24 24 24 24 25 26 27 28 28 28 29 29 30 30 29 30 30 30 29 28 27 27 26 26 27 27 26 26 24 24 23
20 20 21 22 22 22 23 24 24 24 24 24 25 25 26 25 25 26 27 29 29 29 29 29 29 29 30 30 30 30 30 29 28 27 27 26 26 28 27 26 26 25 24
20 20 21 21 22 23 23 24 25 25 26 26 26 26 26 25 26 26 27 28 29 30 30 30 29 28 29 29 29 29 29 30 29 28 28 27 26 27 27 28 27 26 25
21 21 21 21 22 22 23 24 25 26 26 27 27 27 27 27 26 27 27 28 29 30 30 30 29 29 28 28 29 30 29 30 29 29 28 28 27 27 27 28 28 27 27
21 21 21 21 22 22 23 23 24 25 26 26 27 27 27 28 27 27 27 28 29 29 30 30 30 30 29 28 28 29 29 29 29 29 29 29 29 27 27 28 29 29 28
21 21 21 21 22 22 22 23 24 24 25 26 26 26 27 26 27 27 28 27 27 28 28 29 30 30 30 29 28 28 28 29 30 29 29 29 29 29 28 28 30 30 29
21 22 22 22 22 22 23 23 23 23 24 24 24 24 24 25 25 27 27 26 26 26 26 27 27 28 28 28 28 27 27 28 29 30 30 30 30 29 29 29 29 30 30
22 21 22 21 21 22 22 22 22 22 22 23 23 24 23 24 24 25 26 26 26 25 25 25 26 27 27 28 29 28 28 28 29 30 30 30 30 30 29 30 29 29 30
22 21 20 20 21 21 20 20 21 21 22 22 23 23 22 23 23 23 23 24 25 25 25 24 26 27 27 27 28 28 29 28 28 29 30 31 31 31 31 30 30 30 31
21 21 20 20 20 20 19 19 20 20 21 22 22 22 22 22 22 21 22 23 23 24 24 24 25 26 27 27 28 29 29 29 29 29 29 30 32 32 33 31 31 31 31
20 20 20 20 20 20 19 19 19 20 20 21 21 21 21 21 21 20 20 21 22 24 23 23 23 25 26 27 27 29 29 30 30 29 29 31 32 33 33 32 32 32 31
20 20 19 19 18 19 19 18 18 19 19 19 20 20 20 20 20 20 19 20 21 23 24 23 23 24 26 26 26 28 29 29 30 31 30 30 31 31 32 33 33 33 33
19 19 19 18 18 18 18 18 18 17 17 18 19 19 19 19 19 19 19 20 20 21 23 23 24 25 25 25 25 26 27 29 29 29 31 31 30 30 31 32 33 33 33
19 19 18 18 18 18 17 17 16 16 17 18 18 18 18 18 19 19 19 19 18 19 20 22 23 24 25 25 26 26 27 27 27 28 29 31 31 31 31 31 32 32 32
19 18 18 17 17 17 17 16 16 16 16 17 17 18 18 17 17 17 17 17 17 18 19 21 23 25 25 25 25 25 26 27 27 27 28 29 30 31 31 32 33 33 32
18 17 17 17 16 16 16 16 16 15 15 16 17 17 17 17 16 16 16 16 17 18 19 20 21 23 24 25 25 25 25 26 26 27 27 27 28 30 31 31 32 32 31
17 16 15 15 15 15 15 16 16 15 15 15 17 16 16 16 15 15 15 16 17 18 18 18 20 21 23 24 25 24 24 25 25 26 26 26 27 28 30 31 31 31 31
17 16 15 15 15 15 15 15 14 14 14 15 15 15 15 13 13 13 14 15 16 16 17 17 18 19 20 21 22 22 23 24 25 25 25 26 26 27 28 29 30 30 30
16 15 15 15 15 15 14 13 13 13 13 13 14 14 13 13 13 13 14 14 14 14 15 15 16 17 18 19 19 20 21 21 22 23 23 24 25 25 26 27 28 29 29
15 15 15 15 15 14 14 13 13 14 14 14 14 14 13 13 13 13 13 13 12 11 11 13 13 14 15 16 18 18 18 19 20 21 21 22 22 22 24 25 26 27 28
15 15 15 15 15 14 13 13 14 15 15 14 14 13 13 13 13 13 12 12 11 10 9 10 11 11 12 13 14 16 17 18 18 20 20 20 20 21 22 22 23 25 26
15 16 15 15 16 15 14 14 14 14 14 14 14 13 13 13 13 13 12 11 10 9 9 9 9 10 10 11 12 13 15 17 17 18 18 18 19 19 19 20 20 22 23
15 15 15 16 16 16 15 15 14 14 15 15 14 14 13 13 13 13 12 11 10 8 8 8 9 9 10 10 11 12 13 14 14 14 15 15 16 17 18 18 19 20 21
15 16 16 16 16 16 16 15 15 15 15 15 14 14 13 12 12 12 12 11 10 9 8 8 8 8 8 9 10 10 10 11 12 12 13 14 14 16 17 18 19 20 21
16 16 16 16 16 16 16 16 15 15 15 15 14 14 13 12 12 12 11 11 10 9 8 8 8 8 8 8 9 10 10 11 12 13 12 13 14 15 17 17 18 19 20
16 16 16 16 16 16 17 16 16 15 15 15 15 14 13 12 12 12 11 11 10 9 8 8 7 7 8 8 8 8 9 10 11 12 11 12 12 13 15 16 16 17 18
Wind_Direction
292 287 284 281 279 280 280 277 274 275 276 274 272 273 273 272 268 265 262 258 256 255 256 255 255 253 253 252 252 251 249 248 246 246 242 240 240 240 239 238 237 237 238
294 290 287 285 282 281 280 277 277 277 276 274 273 273 273 273 269 265 261 258 257 257 257 256 255 252 252 251 250 250 249 248 247 245 243 242 241 239 238 237 236 236 237
296 294 291 286 283 281 281 279 278 278 277 277 275 273 274 272 268 264 261 260 259 258 257 256 254 253 252 251 250 250 249 246 243 242 242 242 241 239 238 237 236 237 238
299 294 294 291 289 285 284 281 279 279 278 277 275 273 273 272 268 265 262 260 259 258 258 256 254 254 252 251 251 249 246 243 242 240 240 240 242 240 240 238 237 238 239
301 298 296 294 292 289 287 284 283 281 279 279 276 274 273 271 270 268 265 261 260 258 257 256 254 252 251 250 250 247 244 243 240 239 238 239 241 242 240 239 238 238 239
302 300 297 296 294 291 291 288 287 283 280 280 280 278 276 272 269 268 266 263 261 259 258 256 254 251 250 249 247 245 242 240 238 237 237 238 239 241 241 241 240 239 240
302 301 299 297 296 294 291 289 289 287 285 283 282 280 278 275 272 269 267 265 262 258 255 252 251 250 247 246 244 243 242 239 237 237 237 238 239 241 242 242 241 240 240
303 302 301 299 298 296 292 290 290 289 287 286 285 282 279 277 275 273 270 265 263 259 255 252 250 249 246 245 244 243 242 240 238 238 239 238 239 239 240 241 242 241 241
305 303 303 302 301 300 295 291 290 290 288 287 288 285 282 277 275 274 270 266 263 257 255 252 251 248 246 245 244 242 241 241 240 240 240 239 240 239 240 241 242 241 242
307 306 304 302 303 303 300 295 292 291 290 290 289 286 283 279 275 274 270 266 261 257 254 253 250 248 246 245 242 241 241 241 240 241 241 241 241 241 241 242 243 243 243
309 308 304 302 304 305 304 300 294 291 291 292 291 286 285 282 278 276 268 263 260 257 255 254 250 247 246 245 242 241 240 241 241 241 241 242 241 242 241 241 242 243 244
312 310 307 305 305 306 305 302 299 295 292 292 292 289 288 284 278 276 269 263 260 257 255 253 252 248 246 243 243 243 242 243 243 241 241 242 242 242 241 241 242 243 245
317 316 313 307 305 306 306 304 302 297 295 294 293 293 292 288 280 276 272 267 262 259 255 253 251 248 246 244 242 242 242 242 243 243 244 244 243 242 242 242 243 244 245
322 318 316 310 307 307 307 308 305 302 299 297 295 295 294 291 285 277 274 269 262 259 256 253 250 247 245 245 244 243 243 244 245 244 245 245 244 244 243 244 244 245 245
323 322 318 314 310 310 309 308 306 305 304 303 301 299 298 296 291 281 278 271 264 260 256 253 251 248 245 244 244 244 244 246 247 247 246 245 244 244 245 246 245 246 246
327 324 321 318 316 316 315 314 311 307 306 309 310 304 299 297 293 288 283 278 269 263 258 255 252 247 244 243 243 244 244 246 246 247 246 245 243 244 245 246 246 246 246
332 330 327 325 323 320 318 316 315 312 310 313 317 313 306 300 292 288 287 282 273 267 262 258 256 250 246 246 243 242 244 246 245 246 246 246 246 245 246 246 246 246 246
332 333 332 331 328 323 322 321 320 319 316 315 317 317 313 308 299 296 294 291 281 271 265 260 256 255 249 246 244 243 245 244 243 245 246 246 247 248 246 245 246 244 246
337 340 338 338 336 331 328 328 330 329 325 319 316 319 319 316 309 304 301 298 289 277 267 260 255 253 250 245 244 243 243 242 242 244 246 246 248 248 246 245 243 243 244
342 342 342 343 343 340 336 334 334 334 331 325 321 321 320 318 315 311 307 304 296 286 272 264 261 255 250 244 240 240 240 239 240 244 246 247 247 246 244 242 241 242 244
343 342 340 342 342 339 336 335 335 334 334 333 329 326 324 323 322 320 315 313 307 296 282 271 261 254 248 242 240 238 239 238 241 243 247 248 246 244 243 240 241 243 245
339 338 337 338 339 338 335 334 334 336 337 334 332 328 325 324 325 326 323 318 312 301 287 276 265 257 252 245 243 241 240 240 242 244 248 248 246 244 242 242 243 246 248
336 336 335 337 338 338 336 336 338 336 335 334 333 331 328 326 327 325 322 317 315 307 293 278 267 257 252 248 244 242 244 245 244 243 242 242 244 245 247 248 248 250 252
332 333 336 336 335 336 336 335 334 333 332 333 334 331 327 327 327 324 319 315 309 304 293 285 273 256 247 247 247 241 243 241 240 240 240 243 247 249 249 249 251 253 255
330 332 332 333 332 333 332 331 331 330 331 332 332 330 327 325 326 326 320 313 306 298 290 279 270 261 256 249 248 245 244 243 242 244 247 251 250 250 250 253 257 258 260
329 332 334 334 332 331 333 332 330 329 329 332 333 334 332 328 324 322 319 313 306 299 290 283 276 267 261 256 259 253 246 247 244 244 247 253 256 257 255 256 258 261 263